{"data":{"norad_id":64282,"epoch":"2026-09-20T08:15:56.089152Z","epoch_age_seconds":151030,"freshness":"FRESH","line1":"1 64282U 25120AC  26263.34439918  .00013352  00000+0  40555-3 0  9997","line2":"2 64282  53.1607 290.7708 0001544  74.6240 285.4933 15.34403944 73726","mean_motion":15.34403944,"eccentricity":0.0001544,"inclination_deg":53.1607,"raan_deg":290.7708,"arg_perigee_deg":74.624,"mean_anomaly_deg":285.4933,"bstar":0.00040555,"rev_number":7372,"period_min":93.847516857008,"perigee_km":461.6352939099,"apogee_km":463.74774175621,"semimajor_km":6840.8285178331,"source":"CELESTRAK","updated_at":"2026-09-21T09:00:35.287205Z"}}